Regional Weather Roundup
Issued by NWS

Home | Current Version | Previous Version | Text Only | Print | Product List | Glossary Off
Versions: 1 2 3 4 5 6 7 8 9 10 11 12 13 14 15 16 17 18 19 20 21 22 23 24 25 26 27 28 29 30 31 32 33 34 35 36 37 38 39 40 41 42 43 44 45 46 47 48 49 50

025
ASUS45 KBOI 291210
RWRID

IDAHO REGIONAL WEATHER ROUNDUP
NATIONAL WEATHER SERVICE BOISE ID
600 AM MDT WED MAR 29 2017

NOTE: "FAIR" INDICATES FEW OR NO CLOUDS BELOW 12000 FEET
WITH NO SIGNIFICANT WEATHER AND/OR OBSTRUCTIONS TO VISIBILITY

IDZ012-014-291300-
SOUTHWEST IDAHO


CITY           SKY/WX    TMP DP  RH WIND       PRES   REMARKS
BOISE          CLOUDY    41  32  70 E8        30.20S
CALDWELL       CLOUDY    40  35  83 E5        30.20F
MOUNTAIN HOME  MOCLDY    36  35  99 CALM      30.21S
$$

IDZ016-017-291300-
SOUTHCENTRAL IDAHO


CITY           SKY/WX    TMP DP  RH WIND       PRES   REMARKS
BURLEY         CLEAR     34  26  72 SW10      30.21S WCI  26
JEROME         CLEAR     35  29  78 S6        30.21F WCI  30
TWIN FALLS     CLEAR     34  28  79 S14       30.21F WCI  25
$$

IDZ019>023-291300-
SOUTHEAST IDAHO


CITY           SKY/WX    TMP DP  RH WIND       PRES   REMARKS
IDAHO FALLS    CLOUDY    35  28  75 S8        30.23R WCI  29
POCATELLO      CLEAR     37  29  72 SW9       30.23S WCI  30
REXBURG        CLOUDY    34  27  75 S6        30.22R WCI  29
$$

IDZ006-010-011-018-031-032-291300-
CENTRAL IDAHO MOUNTAINS


CITY           SKY/WX    TMP DP  RH WIND       PRES   REMARKS
MCCALL         FLURRIES  33  29  85 NW5       30.15F WCI  29
HAILEY         CLEAR     30  23  74 NW7       30.20S WCI  23
STANLEY          N/A     20  16  84 S3        30.21F
SALMON         CLOUDY    28  23  80 CALM      30.16F
CHALLIS        CLEAR     30  22  72 CALM      30.17F
$$

IDZ002-004-006-007-026-291300-
NORTHERN IDAHO


CITY           SKY/WX    TMP DP  RH WIND       PRES   REMARKS
LEWISTON       LGT RAIN  45  41  86 E7        30.09F
LOWELL           N/A     41  38  89 CALM      30.17F
COEUR D`ALENE  LGT RAIN  41  38  89 S9        30.07F
MULLAN PASS    SNOW      29  28  96 VRB5      30.04F VSB 1/4 WCI  24
$$




USA.gov is the U.S. government's official web portal to all federal, state and local government web resources and services.